| time (UTC) | temp F | wind direction | speed knots | gust knots | rain 1hr in | rain 24hr in | rain mn in | humidity % | barometer mb |
| 20260505201451 | 83 | 84 | 0.9 | 1.7 | 0.00 | 0.00 | 0.00 | 77 | 1007.1 |
| 20260505200949 | 84 | 12 | 0.0 | 0.0 | 0.00 | 0.00 | 0.00 | 77 | 1007.0 |
| 20260505200447 | 84 | 359 | 1.7 | 1.7 | 0.00 | 0.00 | 0.00 | 75 | 1007.0 |
| 20260505195942 | 84 | 114 | 0.9 | 1.7 | 0.00 | 0.00 | 0.00 | 74 | 1007.0 |
| 20260505195439 | 84 | 12 | 2.6 | 3.5 | 0.00 | 0.00 | 0.00 | 75 | 1007.1 |
| 20260505194937 | 84 | 9 | 0.9 | 0.9 | 0.00 | 0.00 | 0.00 | 75 | 1007.2 |
| 20260505194434 | 84 | 326 | 1.7 | 3.5 | 0.00 | 0.00 | 0.00 | 75 | 1007.3 |
| 20260505193934 | 83 | 352 | 0.9 | 0.9 | 0.00 | 0.00 | 0.00 | 77 | 1007.5 |
| 20260505193432 | 83 | 359 | 0.0 | 0.9 | 0.00 | 0.00 | 0.00 | 77 | 1007.5 |
| 20260505192929 | 83 | 322 | 0.9 | 1.7 | 0.00 | 0.00 | 0.00 | 77 | 1007.5 |
| 20260505192427 | 83 | 321 | 2.6 | 3.5 | 0.00 | 0.00 | 0.00 | 78 | 1007.4 |
| 20260505191925 | 82 | 31 | 0.0 | 0.0 | 0.00 | 0.00 | 0.00 | 80 | 1007.6 |
| 20260505191424 | 82 | 170 | 0.9 | 1.7 | 0.00 | 0.00 | 0.00 | 79 | 1007.5 |
| 20260505190920 | 81 | 8 | 0.0 | 0.0 | 0.00 | 0.00 | 0.00 | 80 | 1007.6 |
| 20260505190415 | 82 | 10 | 0.0 | 0.9 | 0.00 | 0.00 | 0.00 | 81 | 1007.7 |
| 20260505185910 | 81 | 357 | 0.0 | 0.0 | 0.00 | 0.00 | 0.00 | 80 | 1007.8 |
| 20260505185408 | 81 | 359 | 0.0 | 0.9 | 0.00 | 0.00 | 0.00 | 81 | 1008.1 |
| 20260505184904 | 82 | 338 | 0.9 | 1.7 | 0.00 | 0.00 | 0.00 | 80 | 1007.8 |
| 20260505184401 | 82 | 121 | 0.9 | 1.7 | 0.00 | 0.00 | 0.00 | 80 | 1007.8 |
| 20260505183858 | 81 | 348 | 0.0 | 0.0 | 0.00 | 0.00 | 0.00 | 81 | 1007.8 |
| 20260505183355 | 80 | 332 | 0.0 | 0.9 | 0.00 | 0.00 | 0.00 | 82 | 1007.9 |
| 20260505182851 | 79 | 350 | 2.6 | 2.6 | 0.00 | 0.00 | 0.00 | 83 | 1008.0 |
| 20260505182348 | 79 | 7 | 0.9 | 0.9 | 0.00 | 0.00 | 0.00 | 84 | 1007.9 |
| 20260505181845 | 79 | 340 | 1.7 | 1.7 | 0.00 | 0.00 | 0.00 | 84 | 1008.1 |
| 20260505181337 | 79 | 354 | 0.9 | 1.7 | 0.00 | 0.00 | 0.00 | 84 | 1008.1 |
| 20260505180833 | 79 | 312 | 1.7 | 2.6 | 0.00 | 0.00 | 0.00 | 84 | 1008.0 |
| 20260505180330 | 79 | 27 | 1.7 | 1.7 | 0.00 | 0.00 | 0.00 | 84 | 1008.2 |
| 20260505175826 | 78 | 10 | 1.7 | 5.2 | 0.00 | 0.00 | 0.00 | 85 | 1008.2 |
| 20260505175323 | 78 | 349 | 0.9 | 0.9 | 0.00 | 0.00 | 0.00 | 86 | 1008.2 |
| 20260505174819 | 78 | 29 | 0.9 | 1.7 | 0.00 | 0.00 | 0.00 | 86 | 1008.0 |
| 20260505174317 | 78 | 347 | 0.0 | 0.0 | 0.00 | 0.00 | 0.00 | 86 | 1008.2 |
| 20260505173813 | 78 | 28 | 0.0 | 0.0 | 0.00 | 0.00 | 0.00 | 86 | 1008.3 |
| 20260505173309 | 78 | 30 | 0.9 | 0.9 | 0.00 | 0.00 | 0.00 | 86 | 1008.4 |
| 20260505172806 | 78 | 120 | 1.7 | 1.7 | 0.00 | 0.00 | 0.00 | 85 | 1008.4 |
| 20260505172306 | 78 | 358 | 0.0 | 0.9 | 0.00 | 0.00 | 0.00 | 85 | 1008.5 |
| 20260505171759 | 78 | 331 | 0.0 | 0.9 | 0.00 | 0.00 | 0.00 | 85 | 1008.3 |
| 20260505171255 | 78 | 335 | 2.6 | 3.5 | 0.00 | 0.00 | 0.00 | 85 | 1008.4 |
| 20260505170752 | 78 | 83 | 0.9 | 1.7 | 0.00 | 0.00 | 0.00 | 86 | 1008.3 |
| 20260505170250 | 77 | 340 | 0.9 | 0.9 | 0.00 | 0.00 | 0.00 | 87 | 1008.4 |
| 20260505165749 | 77 | 347 | 0.9 | 0.9 | 0.00 | 0.00 | 0.00 | 88 | 1008.5 |
| 20260505165246 | 77 | 355 | 0.9 | 0.9 | 0.00 | 0.00 | 0.00 | 88 | 1008.4 |
| 20260505164741 | 77 | 5 | 0.0 | 0.0 | 0.00 | 0.00 | 0.00 | 88 | 1008.7 |
| 20260505164239 | 77 | 342 | 0.0 | 0.0 | 0.00 | 0.00 | 0.00 | 87 | 1008.6 |
| 20260505163737 | 77 | 342 | 0.0 | 0.9 | 0.00 | 0.00 | 0.00 | 87 | 1008.6 |
| 20260505163235 | 77 | 338 | 0.9 | 0.9 | 0.00 | 0.00 | 0.00 | 87 | 1008.6 |
| 20260505162732 | 76 | 334 | 0.9 | 1.7 | 0.00 | 0.00 | 0.00 | 88 | 1008.6 |
| 20260505162229 | 76 | 65 | 0.9 | 0.9 | 0.00 | 0.00 | 0.00 | 89 | 1008.7 |
| 20260505161726 | 76 | 328 | 0.9 | 1.7 | 0.00 | 0.00 | 0.00 | 89 | 1008.7 |
| 20260505161224 | 75 | 355 | 0.0 | 0.9 | 0.00 | 0.00 | 0.00 | 90 | 1008.5 |
| 20260505160721 | 75 | 328 | 0.9 | 0.9 | 0.00 | 0.00 | 0.00 | 90 | 1008.4 |
| 20260505160218 | 75 | 9 | 0.9 | 0.9 | 0.00 | 0.00 | 0.00 | 90 | 1008.6 |
| 20260505153157 | 76 | 58 | 0.9 | 0.9 | 0.00 | 0.00 | 0.00 | 87 | 1008.4 |
| 20260505152654 | 76 | 4 | 0.9 | 1.7 | 0.00 | 0.00 | 0.00 | 87 | 1008.2 |
| 20260505152150 | 76 | 50 | 0.9 | 0.9 | 0.00 | 0.00 | 0.00 | 86 | 1008.2 |
| 20260505151645 | 76 | 327 | 1.7 | 1.7 | 0.00 | 0.00 | 0.00 | 86 | 1008.3 |
| 20260505151143 | 76 | 334 | 0.0 | 0.9 | 0.00 | 0.00 | 0.00 | 87 | 1008.2 |
| 20260505150639 | 76 | 330 | 0.9 | 1.7 | 0.00 | 0.00 | 0.00 | 87 | 1008.1 |
| 20260505150136 | 76 | 21 | 0.9 | 1.7 | 0.00 | 0.00 | 0.00 | 87 | 1008.1 |
| 20260505140605 | 74 | 56 | 0.9 | 1.7 | 0.00 | 0.00 | 0.00 | 90 | 1007.8 |
| 20260505125018 | 72 | 354 | 0.0 | 0.0 | 0.00 | 0.00 | 0.00 | 92 | 1007.9 |
| 20260505124515 | 72 | 342 | 0.0 | 0.0 | 0.00 | 0.00 | 0.00 | 92 | 1007.4 |
| 20260505124011 | 72 | 350 | 0.9 | 1.7 | 0.00 | 0.00 | 0.00 | 92 | 1007.2 |
| 20260505123508 | 71 | 70 | 0.9 | 1.7 | 0.00 | 0.00 | 0.00 | 92 | 1007.3 |
| 20260505123004 | 71 | 6 | 0.0 | 0.0 | 0.00 | 0.00 | 0.00 | 92 | 1007.4 |
| 20260505122501 | 71 | 352 | 0.0 | 0.0 | 0.00 | 0.00 | 0.00 | 93 | 1007.7 |
| 20260505121958 | 71 | 341 | 0.0 | 0.0 | 0.00 | 0.00 | 0.00 | 92 | 1007.5 |
| 20260505121455 | 71 | 301 | 0.0 | 0.0 | 0.00 | 0.00 | 0.00 | 93 | 1007.6 |
| 20260505120950 | 71 | 8 | 0.9 | 0.9 | 0.00 | 0.00 | 0.00 | 93 | 1007.5 |
| 20260505120447 | 71 | 37 | 1.7 | 1.7 | 0.00 | 0.00 | 0.00 | 92 | 1007.6 |
| 20260505115946 | 71 | 15 | 0.9 | 1.7 | 0.00 | 0.00 | 0.00 | 93 | 1007.6 |
| 20260505115443 | 71 | 316 | 0.9 | 1.7 | 0.00 | 0.00 | 0.00 | 93 | 1007.4 |
| 20260505114941 | 71 | 325 | 0.9 | 0.9 | 0.00 | 0.00 | 0.00 | 93 | 1007.2 |
| 20260505114437 | 71 | 1 | 0.0 | 0.9 | 0.00 | 0.00 | 0.00 | 93 | 1007.1 |
| 20260505113934 | 71 | 347 | 0.9 | 1.7 | 0.00 | 0.00 | 0.00 | 93 | 1007.0 |
| 20260505113430 | 70 | 356 | 0.0 | 0.0 | 0.00 | 0.00 | 0.00 | 93 | 1007.5 |
| 20260505112926 | 70 | 38 | 0.0 | 0.9 | 0.00 | 0.00 | 0.00 | 93 | 1007.6 |
| 20260505112424 | 70 | 359 | 0.9 | 0.9 | 0.00 | 0.00 | 0.00 | 93 | 1007.5 |
| 20260505111920 | 71 | 1 | 0.0 | 0.0 | 0.00 | 0.00 | 0.00 | 93 | 1007.3 |
| 20260505111414 | 71 | 349 | 0.0 | 0.0 | 0.00 | 0.00 | 0.00 | 92 | 1007.4 |
| 20260505110911 | 71 | 336 | 0.0 | 0.0 | 0.00 | 0.00 | 0.00 | 92 | 1007.3 |
| 20260505110408 | 71 | 343 | 0.9 | 1.7 | 0.00 | 0.00 | 0.00 | 92 | 1007.4 |
| 20260505101839 | 71 | 13 | 0.9 | 1.7 | 0.00 | 0.00 | 0.00 | 91 | 1007.3 |
| 20260505101334 | 70 | 1 | 0.0 | 0.9 | 0.00 | 0.00 | 0.00 | 91 | 1007.3 |
| 20260505100830 | 70 | 3 | 0.0 | 0.0 | 0.00 | 0.00 | 0.00 | 91 | 1007.5 |
| 20260505100327 | 70 | 359 | 0.0 | 0.0 | 0.00 | 0.00 | 0.00 | 91 | 1007.4 |
| 20260505095822 | 70 | 2 | 0.0 | 0.0 | 0.00 | 0.00 | 0.00 | 91 | 1007.5 |
| 20260505095320 | 70 | 2 | 0.0 | 0.0 | 0.00 | 0.00 | 0.00 | 91 | 1007.6 |
| 20260505094816 | 70 | 4 | 0.9 | 0.9 | 0.00 | 0.00 | 0.00 | 91 | 1007.6 |
| 20260505094313 | 70 | 338 | 0.0 | 0.0 | 0.00 | 0.00 | 0.00 | 91 | 1007.5 |
| 20260505093808 | 70 | 356 | 0.0 | 0.0 | 0.00 | 0.00 | 0.00 | 91 | 1007.5 |
| 20260505093306 | 70 | 1 | 0.0 | 0.0 | 0.00 | 0.00 | 0.00 | 91 | 1007.4 |
| 20260505092803 | 70 | 5 | 0.0 | 0.0 | 0.00 | 0.00 | 0.00 | 91 | 1007.7 |
| 20260505092304 | 70 | 0 | 0.0 | 0.0 | 0.00 | 0.00 | 0.00 | 91 | 1007.6 |
| 20260505091758 | 70 | 3 | 0.0 | 0.0 | 0.00 | 0.00 | 0.00 | 91 | 1007.9 |
| 20260505091256 | 70 | 350 | 0.0 | 0.0 | 0.00 | 0.00 | 0.00 | 91 | 1007.9 |
| 20260505090754 | 70 | 353 | 0.9 | 0.9 | 0.00 | 0.00 | 0.00 | 91 | 1007.7 |
| 20260505090252 | 70 | 356 | 0.0 | 0.0 | 0.00 | 0.00 | 0.00 | 91 | 1007.6 |
| 20260505085749 | 70 | 343 | 0.0 | 0.0 | 0.00 | 0.00 | 0.00 | 91 | 1007.6 |
| 20260505085247 | 70 | 356 | 0.0 | 0.9 | 0.00 | 0.00 | 0.00 | 90 | 1007.7 |
| 20260505084744 | 70 | 351 | 0.0 | 0.0 | 0.00 | 0.00 | 0.00 | 90 | 1007.8 |
| 20260505084243 | 70 | 350 | 0.0 | 0.0 | 0.00 | 0.00 | 0.00 | 90 | 1007.7 |
| 20260505083739 | 70 | 356 | 0.0 | 0.0 | 0.00 | 0.00 | 0.00 | 90 | 1007.6 |
| 20260505083236 | 70 | 347 | 0.0 | 0.9 | 0.00 | 0.00 | 0.00 | 90 | 1007.9 |
| 20260505082732 | 70 | 356 | 0.0 | 0.0 | 0.00 | 0.00 | 0.00 | 90 | 1008.0 |
| 20260505082230 | 70 | 352 | 0.0 | 0.0 | 0.00 | 0.00 | 0.00 | 89 | 1008.0 |
| 20260505081725 | 70 | 345 | 0.0 | 0.0 | 0.00 | 0.00 | 0.00 | 89 | 1008.0 |
| 20260505081223 | 70 | 5 | 0.9 | 0.9 | 0.00 | 0.00 | 0.00 | 89 | 1008.1 |
| 20260505080720 | 70 | 344 | 0.0 | 0.0 | 0.00 | 0.00 | 0.00 | 89 | 1008.0 |
| 20260505080215 | 70 | 3 | 0.0 | 0.0 | 0.00 | 0.00 | 0.00 | 89 | 1008.2 |
| 20260505075711 | 70 | 2 | 0.0 | 0.0 | 0.00 | 0.00 | 0.00 | 89 | 1008.4 |
| 20260505075209 | 70 | 0 | 0.0 | 0.0 | 0.00 | 0.00 | 0.00 | 89 | 1008.3 |
| 20260505074706 | 70 | 1 | 0.0 | 0.0 | 0.00 | 0.00 | 0.00 | 89 | 1008.3 |
| 20260505074203 | 70 | 41 | 0.0 | 0.9 | 0.00 | 0.00 | 0.00 | 88 | 1008.2 |
| 20260505073700 | 70 | 356 | 0.0 | 0.0 | 0.00 | 0.00 | 0.00 | 88 | 1008.2 |
| 20260505073158 | 70 | 357 | 0.0 | 0.0 | 0.00 | 0.00 | 0.00 | 88 | 1008.3 |
| 20260505072654 | 70 | 357 | 0.0 | 0.0 | 0.00 | 0.00 | 0.00 | 88 | 1008.2 |
| 20260505072150 | 70 | 355 | 0.0 | 0.0 | 0.00 | 0.00 | 0.00 | 88 | 1008.5 |
| 20260505071646 | 70 | 331 | 0.0 | 0.0 | 0.00 | 0.00 | 0.00 | 88 | 1008.8 |
| 20260505071144 | 70 | 341 | 0.0 | 0.0 | 0.00 | 0.00 | 0.00 | 88 | 1008.5 |
| 20260505070641 | 70 | 2 | 0.0 | 0.0 | 0.00 | 0.00 | 0.00 | 87 | 1008.6 |
| 20260505070137 | 70 | 356 | 0.0 | 0.0 | 0.00 | 0.00 | 0.00 | 87 | 1008.6 |
| 20260505065633 | 70 | 359 | 0.0 | 0.0 | 0.00 | 0.00 | 0.00 | 87 | 1008.6 |
| 20260505065130 | 70 | 70 | 0.0 | 0.0 | 0.00 | 0.00 | 0.00 | 87 | 1008.5 |
| 20260505064627 | 70 | 351 | 0.0 | 0.0 | 0.00 | 0.00 | 0.00 | 87 | 1008.9 |
| 20260505064125 | 70 | 12 | 0.0 | 0.0 | 0.00 | 0.00 | 0.00 | 87 | 1008.6 |
| 20260505063622 | 70 | 4 | 0.9 | 0.9 | 0.00 | 0.00 | 0.00 | 87 | 1008.9 |
| 20260505063118 | 70 | 4 | 0.0 | 0.0 | 0.00 | 0.00 | 0.00 | 87 | 1008.8 |
| 20260505062615 | 70 | 348 | 0.0 | 0.0 | 0.00 | 0.00 | 0.00 | 87 | 1009.1 |
| 20260505062112 | 70 | 336 | 0.0 | 1.7 | 0.00 | 0.00 | 0.00 | 86 | 1009.0 |
| 20260505061609 | 70 | 354 | 0.0 | 0.0 | 0.00 | 0.00 | 0.00 | 86 | 1008.9 |
| 20260505061107 | 70 | 352 | 0.0 | 0.0 | 0.00 | 0.00 | 0.00 | 86 | 1009.1 |
| 20260505060604 | 70 | 355 | 0.0 | 0.0 | 0.00 | 0.00 | 0.00 | 86 | 1009.1 |
| 20260505055556 | 70 | 348 | 1.7 | 1.7 | 0.00 | 0.00 | 0.00 | 85 | 1009.0 |
| 20260505055053 | 70 | 339 | 0.9 | 0.9 | 0.00 | 0.00 | 0.00 | 85 | 1008.9 |
| 20260505054550 | 70 | 41 | 0.0 | 0.9 | 0.00 | 0.00 | 0.00 | 85 | 1009.1 |
| 20260505054049 | 70 | 352 | 0.0 | 0.0 | 0.00 | 0.00 | 0.00 | 85 | 1009.1 |
| 20260505053545 | 70 | 56 | 0.0 | 0.0 | 0.00 | 0.00 | 0.00 | 85 | 1009.2 |
| 20260505053042 | 71 | 44 | 0.0 | 0.0 | 0.00 | 0.00 | 0.00 | 84 | 1009.4 |
| 20260505052539 | 71 | 14 | 0.0 | 0.0 | 0.00 | 0.00 | 0.00 | 84 | 1009.4 |
| 20260505052037 | 71 | 51 | 0.0 | 0.0 | 0.00 | 0.00 | 0.00 | 84 | 1009.5 |
| 20260505051533 | 71 | 37 | 0.0 | 0.0 | 0.00 | 0.00 | 0.00 | 84 | 1009.4 |
| 20260505051031 | 71 | 40 | 0.0 | 0.0 | 0.00 | 0.00 | 0.00 | 83 | 1009.4 |
| 20260505050529 | 71 | 39 | 0.0 | 0.0 | 0.00 | 0.00 | 0.00 | 83 | 1009.5 |
| 20260505041457 | 72 | 15 | 0.9 | 0.9 | 0.00 | 0.00 | 0.00 | 80 | 1009.3 |
| 20260505040954 | 72 | 25 | 1.7 | 1.7 | 0.00 | 0.00 | 0.00 | 80 | 1009.4 |
| 20260505040451 | 72 | 27 | 0.9 | 0.9 | 0.00 | 0.00 | 0.00 | 80 | 1009.5 |
| 20260505035948 | 72 | 320 | 0.9 | 1.7 | 0.00 | 0.00 | 0.00 | 80 | 1009.7 |
| 20260505035444 | 72 | 3 | 0.9 | 0.9 | 0.00 | 0.00 | 0.00 | 80 | 1009.7 |
| 20260505034942 | 72 | 51 | 0.0 | 0.9 | 0.00 | 0.00 | 0.00 | 80 | 1009.6 |
| 20260505034438 | 72 | 355 | 0.0 | 0.0 | 0.00 | 0.00 | 0.00 | 80 | 1009.7 |
| 20260505033935 | 72 | 339 | 1.7 | 2.6 | 0.00 | 0.00 | 0.00 | 79 | 1009.6 |
| 20260505033432 | 72 | 334 | 0.0 | 0.0 | 0.00 | 0.00 | 0.00 | 79 | 1009.6 |
| 20260505032930 | 72 | 48 | 1.7 | 1.7 | 0.00 | 0.00 | 0.00 | 79 | 1009.7 |
| 20260505032427 | 73 | 0 | 0.0 | 0.0 | 0.00 | 0.00 | 0.00 | 79 | 1009.9 |
| 20260505031923 | 73 | 348 | 0.0 | 0.0 | 0.00 | 0.00 | 0.00 | 79 | 1009.8 |
| 20260505031420 | 73 | 347 | 0.0 | 0.9 | 0.00 | 0.00 | 0.00 | 78 | 1009.7 |
| 20260505030917 | 73 | 342 | 1.7 | 1.7 | 0.00 | 0.00 | 0.00 | 78 | 1009.7 |
| 20260505030413 | 73 | 11 | 0.9 | 0.9 | 0.00 | 0.00 | 0.00 | 78 | 1009.7 |
| 20260505025909 | 73 | 30 | 0.9 | 1.7 | 0.00 | 0.00 | 0.00 | 77 | 1009.7 |
| 20260505025406 | 73 | 52 | 0.0 | 0.9 | 0.00 | 0.00 | 0.00 | 77 | 1009.5 |
| 20260505024905 | 74 | 26 | 0.9 | 0.9 | 0.00 | 0.00 | 0.00 | 76 | 1009.5 |
| 20260505024402 | 74 | 351 | 0.0 | 0.0 | 0.00 | 0.00 | 0.00 | 76 | 1009.5 |
| 20260505023859 | 74 | 1 | 0.0 | 0.0 | 0.00 | 0.00 | 0.00 | 76 | 1009.5 |
| 20260505023356 | 74 | 5 | 0.0 | 0.0 | 0.00 | 0.00 | 0.00 | 75 | 1009.5 |
| 20260505022853 | 74 | 354 | 0.9 | 0.9 | 0.00 | 0.00 | 0.00 | 75 | 1009.3 |
| 20260505022350 | 74 | 127 | 1.7 | 1.7 | 0.00 | 0.00 | 0.00 | 75 | 1009.3 |
| 20260505021848 | 75 | 352 | 0.0 | 0.0 | 0.00 | 0.00 | 0.00 | 75 | 1009.5 |
| 20260505021344 | 74 | 357 | 0.9 | 1.7 | 0.00 | 0.00 | 0.00 | 75 | 1009.4 |
| 20260505020840 | 74 | 55 | 0.0 | 0.9 | 0.00 | 0.00 | 0.00 | 75 | 1009.5 |
| 20260505020335 | 74 | 21 | 0.0 | 0.0 | 0.00 | 0.00 | 0.00 | 76 | 1009.4 |
| 20260505015832 | 74 | 2 | 0.0 | 0.0 | 0.00 | 0.00 | 0.00 | 76 | 1009.2 |
| 20260505015330 | 74 | 331 | 0.0 | 0.0 | 0.00 | 0.00 | 0.00 | 76 | 1009.2 |
| 20260505014827 | 74 | 343 | 0.9 | 1.7 | 0.00 | 0.00 | 0.00 | 76 | 1009.2 |
| 20260505014324 | 74 | 348 | 0.0 | 0.0 | 0.00 | 0.00 | 0.00 | 76 | 1009.1 |
| 20260505013820 | 74 | 14 | 0.0 | 0.0 | 0.00 | 0.00 | 0.00 | 75 | 1009.2 |
| 20260505013318 | 74 | 14 | 0.0 | 0.0 | 0.00 | 0.00 | 0.00 | 75 | 1009.1 |
| 20260505012816 | 74 | 14 | 0.0 | 0.0 | 0.00 | 0.00 | 0.00 | 75 | 1009.1 |
| 20260505012313 | 74 | 12 | 0.0 | 0.0 | 0.00 | 0.00 | 0.00 | 74 | 1009.1 |
| 20260505011809 | 75 | 32 | 0.0 | 0.0 | 0.00 | 0.00 | 0.00 | 74 | 1008.8 |
| 20260505011306 | 75 | 352 | 0.0 | 0.0 | 0.00 | 0.00 | 0.00 | 73 | 1008.9 |
| 20260505010802 | 75 | 351 | 0.0 | 0.9 | 0.00 | 0.00 | 0.00 | 73 | 1009.1 |
| 20260505010258 | 75 | 349 | 0.0 | 0.0 | 0.00 | 0.00 | 0.00 | 73 | 1008.8 |
| 20260505005754 | 75 | 3 | 0.0 | 0.0 | 0.00 | 0.00 | 0.00 | 72 | 1009.0 |
| 20260505005252 | 76 | 7 | 0.9 | 1.7 | 0.00 | 0.00 | 0.00 | 72 | 1009.1 |
| 20260505004749 | 76 | 335 | 0.0 | 0.0 | 0.00 | 0.00 | 0.00 | 71 | 1009.1 |
| 20260505004245 | 76 | 354 | 0.0 | 0.0 | 0.00 | 0.00 | 0.00 | 71 | 1009.1 |
| 20260505003742 | 76 | 3 | 0.0 | 0.9 | 0.00 | 0.00 | 0.00 | 71 | 1009.0 |
| 20260505003240 | 76 | 334 | 0.9 | 0.9 | 0.00 | 0.00 | 0.00 | 70 | 1009.0 |
| 20260505002736 | 76 | 341 | 0.0 | 0.0 | 0.00 | 0.00 | 0.00 | 70 | 1008.9 |
| 20260505002234 | 77 | 336 | 0.0 | 0.0 | 0.00 | 0.00 | 0.00 | 70 | 1008.9 |
| 20260505001731 | 77 | 16 | 0.0 | 0.0 | 0.00 | 0.00 | 0.00 | 70 | 1009.0 |
| 20260505001228 | 77 | 351 | 0.0 | 0.0 | 0.00 | 0.00 | 0.00 | 69 | 1009.2 |
| 20260505000725 | 77 | 50 | 0.0 | 0.0 | 0.00 | 0.00 | 0.00 | 69 | 1009.1 |
| 20260505000223 | 77 | 332 | 0.0 | 0.0 | 0.00 | 0.00 | 0.00 | 69 | 1008.9 |
| 20260504235719 | 77 | 11 | 0.0 | 0.0 | 0.00 | 0.00 | 0.00 | 69 | 1009.1 |
| 20260504235215 | 78 | 336 | 0.9 | 1.7 | 0.00 | 0.00 | 0.00 | 68 | 1009.1 |
| 20260504234713 | 78 | 0 | 0.0 | 0.0 | 0.00 | 0.00 | 0.00 | 68 | 1009.1 |
| 20260504234210 | 78 | 80 | 0.0 | 0.9 | 0.00 | 0.00 | 0.00 | 68 | 1009.3 |
| 20260504233706 | 78 | 356 | 0.0 | 1.7 | 0.00 | 0.00 | 0.00 | 67 | 1009.2 |
| 20260504233202 | 78 | 344 | 0.0 | 0.0 | 0.00 | 0.00 | 0.00 | 66 | 1009.0 |
| 20260504232700 | 78 | 26 | 0.9 | 2.6 | 0.00 | 0.00 | 0.00 | 66 | 1009.1 |
| 20260504232156 | 79 | 343 | 0.0 | 0.0 | 0.00 | 0.00 | 0.00 | 66 | 1009.3 |
| 20260504231653 | 79 | 0 | 0.0 | 0.0 | 0.00 | 0.00 | 0.00 | 65 | 1009.1 |
| 20260504231149 | 79 | 27 | 0.0 | 0.0 | 0.00 | 0.00 | 0.00 | 65 | 1009.4 |
| 20260504230646 | 80 | 354 | 0.0 | 0.0 | 0.00 | 0.00 | 0.00 | 64 | 1009.5 |
| 20260504230145 | 80 | 324 | 0.9 | 1.7 | 0.00 | 0.00 | 0.00 | 64 | 1009.4 |
| 20260504225643 | 80 | 339 | 0.0 | 0.0 | 0.00 | 0.00 | 0.00 | 63 | 1009.7 |
| 20260504225138 | 80 | 4 | 0.0 | 0.0 | 0.00 | 0.00 | 0.00 | 63 | 1009.6 |
| 20260504224635 | 80 | 342 | 0.0 | 0.0 | 0.00 | 0.00 | 0.00 | 62 | 1009.5 |
| 20260504224132 | 80 | 339 | 0.0 | 0.0 | 0.00 | 0.00 | 0.00 | 62 | 1009.6 |
| 20260504223629 | 80 | 117 | 0.0 | 0.0 | 0.00 | 0.00 | 0.00 | 62 | 1009.7 |
| 20260504223125 | 80 | 337 | 0.0 | 0.0 | 0.00 | 0.00 | 0.00 | 62 | 1009.7 |
| 20260504222622 | 80 | 9 | 0.0 | 0.0 | 0.00 | 0.00 | 0.00 | 61 | 1009.8 |
| 20260504222119 | 80 | 4 | 0.0 | 0.9 | 0.00 | 0.00 | 0.00 | 62 | 1009.7 |
| 20260504221616 | 80 | 37 | 0.0 | 0.9 | 0.00 | 0.00 | 0.00 | 61 | 1010.0 |
| 20260504221113 | 80 | 356 | 0.0 | 0.9 | 0.00 | 0.00 | 0.00 | 62 | 1009.8 |
| 20260504220610 | 80 | 26 | 0.0 | 0.0 | 0.00 | 0.00 | 0.00 | 62 | 1010.0 |
| 20260504220108 | 80 | 1 | 0.0 | 0.0 | 0.00 | 0.00 | 0.00 | 61 | 1009.8 |
| 20260504215603 | 80 | 349 | 0.0 | 0.9 | 0.00 | 0.00 | 0.00 | 60 | 1009.8 |
| 20260504215101 | 81 | 349 | 0.0 | 0.0 | 0.00 | 0.00 | 0.00 | 60 | 1010.1 |
| 20260504214557 | 81 | 76 | 0.9 | 1.7 | 0.00 | 0.00 | 0.00 | 60 | 1009.9 |
| 20260504214053 | 82 | 3 | 0.0 | 0.0 | 0.00 | 0.00 | 0.00 | 59 | 1010.5 |
| 20260504213549 | 82 | 343 | 0.0 | 0.0 | 0.00 | 0.00 | 0.00 | 58 | 1010.2 |
| 20260504213047 | 81 | 339 | 0.0 | 0.0 | 0.00 | 0.00 | 0.00 | 60 | 1010.3 |
| 20260504212542 | 82 | 350 | 0.0 | 0.0 | 0.00 | 0.00 | 0.00 | 57 | 1010.5 |
| 20260504212040 | 82 | 176 | 0.0 | 0.0 | 0.00 | 0.00 | 0.00 | 58 | 1010.4 |
| 20260504211537 | 81 | 79 | 0.0 | 0.0 | 0.00 | 0.00 | 0.00 | 59 | 1010.5 |
| 20260504211034 | 81 | 89 | 0.0 | 0.0 | 0.00 | 0.00 | 0.00 | 60 | 1010.6 |
| 20260504210531 | 81 | 43 | 0.0 | 0.0 | 0.00 | 0.00 | 0.00 | 59 | 1010.7 |
| 20260504210027 | 81 | 339 | 0.0 | 0.0 | 0.00 | 0.00 | 0.00 | 59 | 1010.6 |
| 20260504205526 | 81 | 66 | 0.0 | 0.0 | 0.00 | 0.00 | 0.00 | 59 | 1010.7 |
| 20260504205023 | 82 | 353 | 0.0 | 0.0 | 0.00 | 0.00 | 0.00 | 58 | 1010.8 |
| 20260504204521 | 83 | 24 | 0.0 | 0.0 | 0.00 | 0.00 | 0.00 | 58 | 1010.9 |
| 20260504204020 | 82 | 351 | 0.0 | 0.0 | 0.00 | 0.00 | 0.00 | 57 | 1011.1 |
| 20260504203518 | 81 | 9 | 0.0 | 0.0 | 0.00 | 0.00 | 0.00 | 59 | 1011.0 |
| 20260504203015 | 82 | 356 | 0.0 | 0.0 | 0.00 | 0.00 | 0.00 | 57 | 1011.0 |
| 20260504202510 | 82 | 359 | 0.0 | 0.0 | 0.00 | 0.00 | 0.00 | 58 | 1011.3 |
| 20260504202007 | 82 | 356 | 0.0 | 0.0 | 0.00 | 0.00 | 0.00 | 59 | 1011.2 |